Wind_Speed
43 43 43 42 42 41 41 41 40 41 41 41 41 42 42 42 43 43 44 45 45 45 46 46 47 48 50 51 52 53 53 52 51 49 49 48 47 47 47 47 46 46 46
44 44 44 44 43 43 42 42 42 42 42 42 42 42 43 43 44 44 45 45 45 46 46 47 48 50 51 52 53 52 52 50 50 48 47 47 46 46 47 46 45 46 46
46 46 45 44 44 44 43 43 43 43 43 43 43 43 43 43 44 44 45 45 46 46 47 48 50 51 52 52 52 51 49 49 48 48 47 46 46 46 46 45 46 46 45
45 46 46 45 44 44 44 44 43 44 44 44 44 44 43 44 44 44 45 46 46 47 48 49 50 51 51 51 50 48 48 47 47 47 47 46 46 46 45 44 44 43 43
45 46 46 45 45 44 44 44 44 45 44 44 44 44 44 43 44 46 46 46 46 47 48 50 50 50 50 49 48 46 47 47 47 46 46 45 45 44 44 43 42 42 42
43 45 45 45 45 45 44 44 45 44 44 44 44 44 44 44 45 46 46 46 47 47 48 49 49 48 48 47 46 46 46 46 46 45 45 44 44 44 43 42 42 41 40
42 43 43 44 44 45 45 45 45 44 44 44 44 45 45 45 46 47 47 47 47 48 48 48 48 47 47 45 45 45 45 45 44 44 44 43 43 43 43 42 41 41 40
41 42 43 43 44 44 44 45 44 44 44 44 44 45 45 45 46 47 47 47 47 47 48 48 46 46 45 45 44 43 43 43 43 44 43 43 43 43 42 41 41 40 39
40 41 42 43 43 43 43 44 44 45 45 45 45 45 45 45 46 47 47 46 46 46 46 46 45 45 44 44 43 42 42 42 43 42 43 43 42 41 40 40 39 38 37
39 40 40 41 42 42 42 43 43 44 45 45 45 45 45 45 45 46 46 45 45 45 45 44 44 43 42 42 41 41 41 41 41 41 42 42 41 39 38 37 36 35 34
39 40 40 40 41 41 42 42 43 43 44 44 44 44 44 44 45 44 45 45 44 44 44 43 43 42 40 40 41 41 40 40 40 40 40 40 38 36 35 34 33 32 31
39 40 40 40 40 40 41 41 41 42 42 42 42 43 44 44 44 43 44 44 44 43 43 42 41 40 39 39 40 39 39 38 38 38 37 36 35 34 33 32 31 30 29
39 39 40 40 40 40 40 41 41 41 41 41 41 42 42 42 43 43 43 43 42 41 40 40 39 38 37 38 38 38 37 36 36 35 34 33 32 31 30 30 29 28 27
38 38 38 39 40 40 40 40 39 40 40 41 41 41 41 41 41 41 41 40 40 39 39 38 37 37 36 36 36 35 35 34 33 32 32 31 30 29 28 26 25 25 25
37 37 38 38 39 39 38 39 39 39 39 39 39 39 40 40 40 39 39 38 39 38 38 37 36 35 34 34 33 33 33 32 31 30 29 28 27 26 25 24 24 24 24
36 36 36 37 37 38 38 38 38 38 38 38 39 39 39 39 39 38 37 37 38 37 35 35 34 33 32 31 30 30 29 28 28 27 26 26 25 24 23 23 23 22 22
35 35 35 35 36 36 35 36 36 36 37 37 37 37 37 37 36 36 35 35 35 34 33 32 31 30 29 29 28 28 26 26 26 25 25 25 23 22 22 22 21 21 21
35 35 35 35 35 35 35 35 35 36 36 35 35 35 35 34 34 34 34 34 33 32 30 29 29 28 27 27 26 25 25 24 24 24 24 23 22 20 20 20 20 19 19
34 34 34 34 35 35 35 35 35 36 35 35 35 34 33 32 32 33 33 32 31 30 28 28 27 26 25 25 25 24 23 22 22 22 22 22 20 19 19 19 19 18 17
33 33 34 34 35 35 35 35 35 35 35 36 35 34 33 32 32 31 31 30 29 28 27 26 25 24 24 24 23 23 22 22 22 22 22 21 19 18 18 17 16 15 14
32 32 33 33 34 34 34 34 34 34 34 34 33 32 32 31 30 30 29 29 28 27 26 25 24 24 23 23 23 22 22 22 22 22 21 19 18 17 16 15 14 12 11
32 32 32 32 32 32 33 33 33 32 32 31 31 30 30 30 29 28 28 27 26 25 25 24 24 23 22 22 21 21 20 20 20 20 19 18 16 14 13 12 12 10 9
32 32 31 31 31 31 30 30 30 30 30 29 28 28 27 27 27 27 27 25 25 24 23 23 22 21 21 20 19 18 18 17 17 17 17 15 12 11 11 10 9 7 6
29 29 29 29 29 29 29 28 27 27 26 25 25 25 24 25 25 25 25 24 22 22 21 21 20 19 19 18 17 16 16 15 15 15 14 11 9 8 8 6 5 4 3
26 26 27 27 28 27 26 25 25 24 23 22 22 22 21 21 21 21 21 20 20 19 19 18 18 17 17 16 15 14 14 13 13 11 9 7 5 4 4 3 3 4 5
24 24 24 24 24 24 23 23 22 22 22 21 21 20 20 20 20 20 19 19 19 18 17 16 16 15 15 13 12 11 10 9 8 7 5 3 2 1 2 3 4 6 7
Wind_Direction
248 250 252 255 258 260 262 264 267 270 273 275 277 279 282 284 286 288 290 292 292 293 294 295 297 299 301 302 303 303 304 304 305 306 306 306 305 305 306 307 307 307 308
248 250 252 254 257 259 262 264 267 270 272 275 278 280 283 285 287 289 291 292 292 293 294 295 297 299 301 302 302 303 303 303 304 306 306 306 306 306 307 307 307 308 308
248 251 253 254 257 259 262 264 267 270 272 275 278 280 282 284 286 288 290 291 292 293 295 296 298 300 301 302 302 302 302 303 304 306 307 307 306 307 307 307 307 307 308
249 251 252 254 256 259 262 264 267 270 272 275 277 279 281 284 286 288 290 291 293 294 296 298 299 301 301 302 302 302 302 303 304 305 307 306 306 307 307 307 307 307 309
250 251 252 254 256 259 262 264 267 270 273 275 277 278 280 283 286 288 290 291 293 295 297 298 300 301 302 302 301 301 302 303 304 305 306 305 306 307 306 307 308 308 310
251 253 254 256 258 260 262 264 267 270 272 274 276 278 280 283 286 288 290 292 293 295 298 299 300 301 302 302 301 302 302 303 304 305 306 306 306 307 308 308 308 308 309
252 254 255 257 259 261 263 265 266 269 271 273 276 279 280 283 286 288 290 291 293 295 297 299 300 301 301 301 301 302 303 305 305 306 308 308 308 308 308 308 308 309 310
252 254 256 257 259 261 263 265 266 268 270 272 276 278 281 283 286 288 290 291 293 294 296 298 299 300 300 300 301 302 304 305 306 307 308 308 309 309 309 308 308 309 311
253 254 256 258 260 262 263 265 267 269 271 273 276 278 280 283 286 288 290 291 292 294 295 297 298 299 299 299 300 302 303 304 306 307 308 309 309 309 309 309 309 310 311
253 255 256 259 260 262 264 266 268 270 272 274 276 278 279 282 285 287 289 289 291 292 294 296 297 298 298 300 300 302 303 304 305 306 308 309 309 308 308 309 310 312 314
254 255 257 259 261 263 265 268 270 272 273 274 276 278 280 282 285 287 288 289 290 292 293 295 296 296 298 299 301 302 303 304 305 307 309 309 308 308 309 310 311 313 315
254 256 258 259 262 264 266 269 271 272 273 274 276 278 281 283 284 286 287 288 289 290 291 293 294 295 297 299 300 302 303 304 306 308 309 310 309 309 309 310 311 313 314
255 257 258 260 262 265 266 268 271 272 273 275 277 279 281 282 284 285 287 287 288 290 291 292 292 293 296 298 299 301 302 303 306 308 310 310 311 310 310 311 312 314 315
255 257 259 261 263 265 267 269 271 272 274 276 277 279 280 281 283 285 286 285 287 288 290 291 291 292 295 297 298 299 300 303 305 307 309 311 312 312 312 312 313 314 316
257 258 259 262 264 266 268 269 271 272 275 276 277 278 279 280 282 284 286 286 287 288 289 289 290 291 294 296 297 299 300 302 304 307 309 312 312 312 313 314 314 315 317
259 260 261 263 265 267 269 271 272 273 274 276 277 277 279 281 282 284 285 285 287 288 288 287 288 290 291 293 295 297 300 302 305 308 310 312 312 312 314 315 316 317 318
260 261 263 264 266 268 270 272 273 275 277 277 278 279 280 281 281 283 284 287 287 287 287 287 287 288 290 292 294 297 299 302 304 306 310 312 311 312 315 317 318 317 318
261 263 264 265 267 268 270 271 272 274 275 276 278 280 281 281 281 283 285 287 287 286 286 286 287 287 289 291 294 296 299 301 303 307 310 312 312 313 314 317 318 319 319
260 262 264 265 267 268 269 270 271 273 273 275 277 278 278 279 281 283 285 286 285 282 282 284 286 286 287 290 293 295 297 300 303 307 310 312 312 314 316 317 317 317 319
261 262 264 266 268 269 270 271 272 272 272 274 275 274 275 277 280 283 284 284 282 280 280 281 283 284 287 290 291 293 295 298 302 306 309 310 310 312 315 317 317 319 322
262 263 266 268 269 270 270 271 272 272 274 275 274 273 274 276 279 281 283 283 280 278 278 278 279 282 285 288 289 291 294 297 300 304 308 308 308 310 312 314 319 322 326
263 265 267 268 269 270 272 273 273 274 276 274 272 273 273 274 276 279 282 282 278 276 274 275 277 279 282 285 286 289 293 296 300 304 307 307 306 310 315 318 321 321 324
264 266 267 269 270 272 274 274 274 275 274 273 273 273 274 274 276 277 280 279 276 274 273 274 275 277 279 280 283 286 291 296 300 304 307 306 305 309 316 320 323 326 332
264 265 266 268 270 272 273 274 275 273 272 271 272 273 274 275 276 277 276 274 273 272 271 271 272 273 275 277 280 283 287 292 298 303 306 304 304 311 319 326 337 355 23
265 267 268 270 270 271 271 272 272 270 269 270 272 273 275 275 275 274 272 271 271 270 268 266 267 269 271 274 276 278 283 289 296 301 302 298 301 313 332 0 35 63 77
266 268 270 271 271 271 270 270 268 267 267 269 271 273 275 274 272 271 270 269 268 267 265 263 263 264 267 268 267 272 278 286 295 296 291 286 294 331 26 74 87 94 98
Height
5709 5712 5715 5717 5719 5721 5722 5723 5724 5725 5725 5724 5724 5723 5722 5720 5718 5716 5713 5710 5707 5703 5700 5696 5692 5687 5683 5677 5671 5665 5659 5653 5649 5645 5638 5632 5626 5621 5615 5610 5604 5599 5593
5699 5702 5705 5708 5710 5711 5713 5714 5715 5715 5715 5715 5714 5713 5712 5710 5708 5706 5703 5700 5696 5693 5690 5686 5681 5677 5672 5666 5660 5654 5648 5642 5637 5633 5628 5622 5616 5610 5605 5600 5594 5588 5583
5690 5693 5695 5698 5700 5702 5703 5704 5705 5705 5705 5705 5704 5703 5702 5700 5698 5695 5692 5689 5686 5682 5679 5675 5670 5665 5660 5654 5648 5643 5637 5631 5626 5621 5617 5611 5606 5600 5595 5589 5584 5578 5573
5680 5682 5685 5688 5690 5692 5693 5694 5694 5695 5695 5694 5694 5693 5692 5690 5687 5685 5682 5679 5675 5672 5668 5664 5659 5654 5648 5643 5637 5632 5626 5621 5616 5610 5606 5601 5596 5590 5584 5579 5575 5569 5563
5670 5672 5675 5677 5679 5681 5682 5683 5684 5684 5684 5684 5683 5682 5681 5679 5677 5674 5671 5668 5665 5661 5657 5652 5647 5642 5636 5631 5626 5621 5616 5611 5605 5600 5595 5590 5585 5580 5574 5569 5565 5560 5555
5659 5662 5664 5667 5669 5670 5672 5672 5673 5674 5674 5673 5672 5671 5670 5668 5666 5663 5660 5658 5654 5650 5646 5641 5636 5631 5626 5621 5615 5611 5605 5600 5595 5590 5585 5580 5575 5569 5564 5559 5554 5550 5546
5649 5652 5654 5656 5658 5659 5660 5661 5662 5663 5663 5662 5662 5661 5659 5657 5655 5652 5649 5647 5643 5639 5635 5631 5626 5621 5616 5611 5606 5601 5596 5590 5584 5580 5575 5570 5565 5560 5555 5550 5545 5540 5535
5639 5642 5644 5645 5647 5648 5649 5650 5651 5652 5652 5651 5651 5649 5648 5646 5644 5641 5639 5636 5632 5628 5624 5620 5615 5611 5605 5601 5597 5592 5587 5581 5576 5571 5566 5560 5555 5550 5545 5540 5535 5531 5526
5629 5631 5633 5635 5636 5637 5639 5639 5640 5640 5640 5640 5639 5638 5637 5635 5633 5630 5627 5624 5621 5617 5613 5609 5604 5600 5596 5591 5587 5583 5579 5573 5567 5562 5557 5551 5546 5541 5536 5531 5527 5523 5519
5619 5621 5622 5624 5625 5627 5628 5628 5629 5629 5629 5628 5627 5626 5625 5623 5621 5619 5616 5613 5611 5607 5603 5599 5594 5590 5585 5581 5578 5574 5570 5565 5559 5554 5549 5543 5538 5533 5528 5523 5519 5515 5511
5609 5611 5612 5613 5615 5616 5617 5617 5618 5618 5617 5617 5616 5615 5614 5612 5610 5607 5604 5602 5599 5596 5593 5589 5584 5580 5576 5572 5568 5564 5560 5555 5551 5546 5541 5535 5530 5525 5521 5516 5512 5508 5504
5599 5600 5602 5603 5604 5605 5606 5606 5606 5606 5606 5605 5604 5603 5602 5600 5598 5596 5593 5590 5587 5585 5582 5578 5575 5571 5567 5564 5560 5556 5551 5547 5543 5538 5533 5528 5523 5519 5514 5510 5506 5503 5499
5589 5590 5591 5593 5594 5594 5595 5595 5595 5595 5595 5594 5594 5593 5591 5589 5587 5585 5582 5579 5577 5574 5571 5568 5565 5562 5559 5555 5551 5548 5544 5540 5535 5531 5526 5521 5516 5512 5508 5505 5501 5498 5495
5578 5580 5581 5582 5583 5584 5584 5584 5584 5584 5584 5583 5583 5581 5580 5578 5576 5574 5572 5569 5567 5565 5562 5559 5556 5553 5550 5547 5543 5540 5536 5532 5528 5524 5520 5515 5511 5507 5503 5500 5497 5494 5491
5568 5569 5570 5571 5572 5573 5573 5573 5573 5573 5573 5572 5571 5570 5569 5568 5566 5564 5562 5559 5557 5555 5553 5550 5548 5545 5542 5539 5536 5533 5529 5525 5522 5518 5514 5510 5506 5502 5499 5495 5493 5490 5487
5558 5559 5560 5561 5562 5562 5562 5562 5562 5562 5562 5561 5560 5559 5558 5557 5555 5553 5551 5550 5547 5545 5543 5541 5539 5537 5535 5532 5529 5526 5523 5519 5516 5513 5509 5505 5502 5498 5495 5492 5489 5486 5484
5548 5549 5550 5551 5551 5552 5552 5552 5552 5552 5551 5550 5550 5549 5547 5546 5545 5543 5541 5540 5538 5536 5535 5533 5531 5529 5527 5525 5522 5520 5517 5514 5511 5507 5504 5501 5497 5494 5491 5488 5485 5482 5480
5538 5539 5540 5541 5541 5541 5542 5542 5542 5542 5541 5540 5539 5538 5537 5536 5535 5534 5532 5531 5529 5528 5526 5525 5523 5522 5520 5518 5516 5514 5511 5508 5505 5503 5499 5496 5493 5490 5487 5485 5482 5479 5476
5528 5529 5530 5531 5531 5531 5532 5532 5532 5531 5531 5530 5530 5529 5528 5527 5526 5525 5523 5522 5521 5520 5518 5517 5516 5515 5513 5512 5510 5508 5506 5503 5501 5498 5495 5492 5489 5487 5484 5481 5478 5476 5473
5518 5519 5520 5521 5521 5521 5521 5521 5521 5521 5521 5520 5520 5519 5519 5518 5517 5516 5515 5514 5513 5512 5511 5510 5509 5508 5507 5506 5504 5502 5501 5499 5496 5494 5491 5488 5486 5483 5481 5478 5475 5473 5471
5509 5510 5510 5511 5511 5511 5511 5511 5511 5511 5511 5510 5510 5510 5509 5509 5509 5508 5507 5506 5504 5504 5504 5503 5503 5502 5501 5500 5499 5497 5496 5494 5492 5489 5487 5485 5482 5480 5478 5475 5473 5471 5469
5500 5500 5501 5501 5501 5501 5501 5501 5501 5501 5501 5500 5500 5500 5500 5500 5500 5499 5498 5497 5496 5496 5496 5496 5496 5496 5495 5494 5493 5492 5490 5489 5487 5485 5483 5481 5479 5477 5475 5473 5471 5469 5468
5490 5490 5491 5491 5491 5491 5491 5491 5491 5491 5491 5491 5491 5491 5491 5491 5491 5491 5490 5490 5489 5489 5489 5489 5489 5489 5488 5488 5487 5486 5486 5484 5483 5481 5479 5477 5475 5474 5472 5471 5469 5468 5467
5480 5481 5481 5482 5482 5482 5482 5482 5482 5482 5482 5483 5483 5483 5483 5483 5483 5483 5482 5482 5482 5482 5482 5482 5483 5483 5483 5482 5482 5481 5481 5480 5479 5477 5476 5474 5473 5472 5470 5469 5469 5468 5467
5472 5472 5473 5473 5473 5473 5473 5474 5473 5474 5474 5475 5475 5475 5475 5475 5475 5475 5475 5475 5475 5475 5476 5476 5477 5477 5477 5477 5477 5477 5477 5476 5475 5474 5473 5472 5471 5471 5470 5469 5469 5468 5468
5464 5465 5465 5465 5465 5465 5465 5466 5466 5466 5467 5467 5468 5468 5468 5468 5468 5468 5468 5469 5469 5469 5470 5471 5471 5472 5472 5472 5473 5473 5473 5473 5472 5472 5471 5471 5471 5470 5470 5470 5470 5470 5470